Simultaneous Nadir Overpasses (SNOs) Predictions

Prediction of SNOs between AURA and NPP Satellite Orbit:

Table of predicted SNOs for the next 14.0 days since TLE Epoch: 9/6/2012
Index Date (AURA) Time (AURA) AURA Lat,Lon Date (NPP) Time (NPP) NPP Lat,Lon Distance(km) Time Diff (sec)
1 09/07/2012 19:57:27 -79.64, -41.76 09/07/2012 19:56:24 -79.64, -41.74 0.46 63
2 09/07/2012 20:46:47 79.85, 127.48 09/07/2012 20:47:02 79.85, 127.45 0.67 15
3 09/10/2012 12:13:45 -79.79, 75.25 09/10/2012 12:13:12 -79.79, 75.36 2.33 33
4 09/10/2012 13:03:06 79.96,-115.77 09/10/2012 13:03:51 79.96,-115.70 1.26 45
5 09/13/2012 04:30:06 -79.83,-168.53 09/13/2012 04:30:04 -79.83,-168.45 1.72 2
6 09/13/2012 05:17:44 81.83, 39.44 09/13/2012 05:18:57 81.24, 39.22 66.33 73
7 09/15/2012 19:57:02 79.76, 139.19 09/15/2012 19:56:14 79.76, 139.34 3.08 48
8 09/15/2012 20:46:26 -79.87, -52.29 09/15/2012 20:46:56 -79.87, -52.36 1.47 30
9 09/18/2012 12:13:23 79.73,-105.10 09/18/2012 12:13:08 79.72,-105.25 3.04 15




NCC Satellite Simultaneous Nadir Overpasses (SNOs) Prediction Service
